Temp
9 9 9 10 10 10 11 13 13 13 13 13 13 13 13 13 12 12 12 12 12 12 12 12 12 11 10 11 10 10 10 10 9 9 9 9 9 9 9 9 9 9 9 9 9 9 9 9 9
9 9 9 9 9 10 11 13 12 12 12 12 13 13 13 12 12 12 12 12 12 12 12 12 12 11 10 10 10 10 10 10 9 9 9 9 9 9 9 9 9 8 8 8 8 8 8 8 9
9 9 9 9 9 10 12 13 11 12 13 12 13 13 12 12 12 12 12 12 12 12 12 12 11 11 11 10 10 10 10 10 10 9 9 9 9 9 9 8 8 8 8 8 8 8 8 8 8
8 8 8 8 10 11 12 13 12 11 12 12 12 12 12 13 12 12 12 12 12 12 12 11 11 11 10 10 10 9 9 9 9 9 9 9 8 8 8 8 8 8 8 7 7 7 8 8 8
8 8 8 8 10 11 11 12 10 10 11 11 11 12 12 12 12 12 12 12 12 12 11 11 11 10 10 10 10 9 9 9 9 9 8 8 8 8 7 8 8 8 8 7 7 7 7 8 8
7 7 8 8 10 11 11 10 10 10 10 11 11 11 11 12 12 12 12 11 11 11 11 11 11 10 10 10 9 9 9 8 8 8 8 7 7 7 8 8 8 8 8 8 7 7 7 7 8
8 7 8 8 9 10 10 10 10 9 10 10 10 11 11 11 12 12 12 11 11 11 11 10 10 10 10 9 9 9 8 8 8 7 7 7 7 8 8 8 8 8 8 7 7 7 7 7 7
7 7 7 7 8 9 10 9 9 9 9 9 10 10 10 10 11 12 12 11 11 11 11 10 10 10 9 9 9 8 8 8 8 7 7 7 8 8 8 8 8 8 7 7 7 7 6 6 6
6 6 7 7 7 8 9 9 8 8 9 9 10 8 9 8 9 11 11 11 11 11 11 10 10 10 9 9 9 8 8 8 8 7 8 8 8 8 8 7 7 7 7 7 6 6 6 6 5
6 6 6 7 8 8 8 8 8 8 8 8 10 9 9 9 8 9 11 11 11 11 11 10 10 10 9 9 9 8 8 8 8 8 8 8 8 8 7 7 7 7 6 6 6 6 5 5 5
6 7 6 6 6 7 8 8 7 7 8 8 9 9 9 9 8 8 10 11 10 10 10 10 10 9 9 9 9 8 8 8 8 8 8 8 7 7 7 7 6 6 6 6 5 5 5 5 4
6 6 6 6 6 6 7 7 7 7 8 8 8 9 9 9 8 8 9 10 10 10 10 10 10 10 10 10 9 8 8 8 8 7 7 7 7 7 7 6 6 6 6 5 5 5 4 4 4
5 5 5 5 5 5 6 7 7 7 7 8 8 8 8 8 9 6 6 7 9 9 10 10 10 10 10 9 8 8 8 7 7 7 6 6 7 7 6 6 6 5 5 5 5 5 4 4 4
5 5 6 5 6 6 5 7 7 7 7 7 8 7 8 8 8 7 6 7 9 9 9 10 10 9 9 9 8 7 6 6 6 6 6 6 6 6 6 5 5 5 5 5 4 4 4 4 3
4 4 5 6 5 5 5 7 7 7 7 7 7 8 8 8 7 8 7 8 8 9 9 10 10 9 9 8 8 7 6 6 6 6 6 5 5 4 5 5 5 5 4 4 4 4 4 4 4
4 4 3 4 4 4 5 6 6 6 7 7 7 7 8 8 8 8 7 7 8 8 9 9 9 9 9 8 8 7 6 6 6 6 5 5 5 5 4 5 4 4 4 4 4 4 3 4 4
3 2 3 3 4 4 4 4 5 6 6 6 7 7 7 8 8 7 7 7 8 8 8 9 9 9 9 8 8 7 6 6 5 5 5 5 5 5 5 5 4 4 4 3 3 3 3 3 3
2 2 2 3 3 3 4 4 5 5 6 6 7 7 7 7 8 8 8 8 8 7 7 7 7 8 8 7 7 7 6 5 4 4 4 4 5 5 4 4 4 4 3 3 3 3 3 3 2
2 2 2 3 3 2 3 4 4 5 5 6 6 6 7 7 8 7 8 7 7 7 7 6 7 7 7 6 7 6 6 5 4 5 4 4 4 4 4 4 3 3 3 3 3 2 3 3 2
2 2 2 2 2 2 3 3 3 4 6 6 7 6 7 7 8 7 7 7 7 7 7 6 7 7 7 6 6 5 5 5 4 4 4 4 4 4 4 4 4 3 3 3 2 2 2 2 2
2 2 2 2 2 2 2 3 3 3 4 6 6 6 7 7 8 7 7 7 7 7 7 7 6 6 7 6 5 5 5 5 4 4 3 4 3 3 3 3 3 3 3 2 2 2 2 2 1
2 3 2 2 2 1 2 1 2 2 3 5 6 7 7 7 7 8 7 6 6 6 6 7 7 6 6 5 6 5 5 4 4 4 3 3 3 3 3 3 3 3 3 2 2 1 1 1 0
3 3 2 -0 -1 -1 1 -1 2 2 3 4 6 7 7 7 7 8 8 6 6 5 6 6 6 6 6 5 5 5 4 4 2 3 3 2 3 3 3 3 2 2 2 2 1 1 0 0 -0
3 2 1 1 -0 -1 -0 0 2 1 2 4 5 6 7 7 7 7 7 6 6 7 6 6 6 5 5 5 4 4 4 2 2 3 3 3 3 2 2 2 2 1 1 1 1 0 -0 -0 -1
2 1 -1 -1 -1 -1 -1 -1 2 1 2 3 6 6 7 7 6 6 7 7 7 7 6 6 5 6 5 4 4 4 2 3 2 3 3 3 2 2 2 2 1 0 0 0 -0 -1 -1 -1 -2
2 2 -1 -2 -0 -1 -1 -1 0 1 2 3 5 6 6 7 6 7 7 6 6 6 6 6 5 6 5 5 3 4 3 4 4 4 3 3 2 2 1 0 -0 -0 -0 -1 -1 -2 -2 -2 -3
3 2 0 -1 -1 -2 2 1 1 1 1 4 5 5 6 6 5 6 5 6 5 5 5 5 5 5 4 4 3 4 4 4 4 4 3 2 2 1 0 -1 -1 -2 -2 -2 -2 -2 -3 -3 -3
3 3 1 -0 0 -2 2 2 1 2 -0 2 3 4 4 5 5 5 5 5 5 5 5 5 5 5 4 4 4 4 4 4 3 2 1 1 1 -0 -2 -1 -2 -3 -2 -2 -2 -3 -3 -4 -4
3 3 3 1 -0 0 -2 2 1 2 2 2 1 1 3 3 5 5 5 6 5 6 5 5 5 4 4 4 4 4 3 2 2 2 1 0 -0 -2 -2 -2 -3 -3 -3 -3 -3 -4 -4 -4 -4
3 3 3 3 2 0 -0 1 2 2 3 3 2 1 1 3 5 5 5 6 6 6 6 5 4 4 4 4 4 2 2 1 1 -0 -0 -1 -2 -3 -3 -3 -3 -3 -4 -4 -4 -4 -5 -5 -5
Height
3162 3162 3162 3162 3166 3160 3157 3158 3159 3160 3161 3160 3160 3161 3162 3163 3163 3166 3162 3161 3161 3161 3161 3161 3162 3164 3165 3165 3166 3165 3166 3166 3166 3167 3167 3168 3168 3168 3168 3168 3169 3168 3168 3167 3167 3166 3165 3165 3166
3159 3159 3160 3159 3159 3156 3155 3156 3159 3159 3160 3160 3158 3158 3159 3159 3161 3161 3161 3161 3162 3161 3160 3161 3162 3163 3164 3164 3165 3165 3165 3166 3166 3166 3167 3167 3168 3168 3169 3168 3168 3168 3168 3168 3168 3167 3167 3167 3166
3154 3155 3157 3156 3153 3150 3152 3154 3156 3153 3156 3158 3156 3156 3157 3157 3159 3160 3159 3160 3161 3160 3160 3161 3161 3162 3163 3164 3164 3164 3164 3165 3165 3166 3166 3167 3167 3168 3168 3169 3169 3168 3169 3168 3168 3167 3166 3167 3167
3150 3152 3153 3149 3147 3148 3150 3153 3154 3155 3158 3157 3155 3155 3154 3155 3157 3157 3156 3157 3159 3159 3160 3160 3160 3161 3162 3163 3164 3164 3164 3165 3165 3166 3166 3167 3168 3168 3168 3169 3169 3169 3168 3168 3167 3166 3166 3167 3167
3145 3146 3146 3142 3142 3145 3148 3150 3153 3153 3154 3153 3154 3153 3153 3153 3155 3155 3156 3157 3158 3159 3159 3159 3160 3160 3162 3162 3163 3164 3165 3165 3165 3165 3166 3167 3168 3168 3169 3169 3169 3168 3168 3168 3167 3166 3165 3166 3167
3140 3141 3139 3137 3139 3143 3147 3147 3148 3150 3151 3150 3151 3151 3151 3152 3155 3155 3155 3155 3157 3157 3158 3158 3159 3160 3161 3161 3162 3163 3165 3165 3165 3165 3165 3166 3168 3168 3168 3168 3168 3167 3167 3166 3166 3165 3164 3164 3166
3136 3137 3133 3134 3137 3139 3145 3146 3146 3146 3146 3146 3147 3149 3149 3150 3154 3155 3155 3154 3154 3156 3157 3158 3158 3159 3161 3161 3162 3163 3165 3165 3165 3165 3166 3166 3167 3167 3167 3167 3167 3166 3166 3165 3165 3165 3164 3164 3166
3132 3133 3130 3131 3134 3135 3144 3142 3143 3142 3143 3142 3143 3144 3146 3147 3149 3152 3153 3153 3152 3154 3155 3156 3158 3159 3160 3161 3161 3163 3164 3165 3165 3166 3166 3166 3165 3166 3166 3166 3165 3165 3165 3165 3165 3164 3165 3165 3166
3129 3128 3123 3127 3132 3135 3139 3138 3138 3139 3138 3138 3139 3141 3145 3143 3146 3147 3150 3151 3151 3152 3154 3154 3156 3158 3159 3160 3160 3161 3163 3164 3165 3166 3165 3165 3164 3164 3164 3164 3164 3164 3164 3164 3164 3164 3165 3166 3166
3124 3122 3121 3125 3129 3131 3134 3134 3135 3135 3135 3135 3136 3140 3140 3141 3143 3145 3148 3150 3151 3151 3152 3153 3154 3156 3158 3160 3160 3160 3162 3163 3165 3164 3165 3164 3164 3163 3163 3163 3163 3163 3163 3163 3163 3164 3165 3166 3166
3120 3116 3120 3122 3125 3127 3128 3129 3131 3130 3131 3132 3132 3136 3139 3138 3138 3142 3146 3148 3150 3151 3151 3152 3154 3155 3156 3158 3160 3161 3161 3163 3164 3164 3164 3163 3163 3163 3163 3162 3162 3162 3162 3162 3163 3163 3164 3166 3166
3115 3116 3117 3118 3120 3121 3122 3123 3123 3125 3128 3129 3129 3132 3132 3135 3139 3139 3144 3147 3148 3149 3150 3151 3153 3154 3155 3157 3159 3160 3162 3162 3163 3163 3163 3164 3163 3162 3162 3161 3161 3162 3162 3162 3163 3163 3164 3165 3166
3113 3113 3113 3113 3113 3114 3116 3116 3117 3118 3124 3126 3126 3126 3129 3131 3131 3136 3142 3146 3147 3147 3148 3149 3151 3152 3153 3155 3157 3158 3160 3162 3163 3162 3163 3163 3162 3161 3161 3161 3161 3161 3161 3162 3162 3163 3164 3164 3165
3112 3110 3109 3109 3110 3111 3111 3111 3114 3115 3119 3121 3123 3122 3123 3126 3129 3131 3133 3141 3145 3145 3145 3147 3148 3150 3152 3153 3155 3157 3158 3160 3160 3160 3161 3160 3160 3160 3160 3160 3160 3160 3161 3162 3162 3162 3163 3164 3164
3108 3105 3104 3107 3107 3105 3107 3101 3105 3110 3114 3118 3119 3121 3120 3123 3125 3124 3127 3132 3139 3144 3143 3146 3146 3148 3150 3152 3154 3156 3157 3158 3157 3157 3158 3158 3158 3158 3158 3159 3159 3160 3159 3160 3160 3161 3162 3162 3162
3106 3103 3101 3102 3102 3102 3101 3094 3101 3107 3108 3110 3114 3115 3117 3117 3118 3120 3123 3127 3134 3138 3139 3142 3145 3145 3146 3149 3151 3153 3153 3153 3154 3154 3154 3155 3157 3157 3157 3157 3157 3158 3159 3158 3159 3159 3159 3159 3159
3104 3100 3098 3096 3099 3099 3098 3092 3095 3098 3098 3101 3106 3108 3111 3113 3114 3116 3120 3124 3127 3130 3135 3138 3140 3142 3142 3146 3148 3149 3150 3151 3152 3152 3153 3154 3154 3155 3155 3156 3155 3156 3157 3157 3157 3157 3158 3157 3157
3100 3098 3095 3093 3095 3093 3090 3086 3090 3093 3093 3092 3096 3102 3104 3107 3109 3113 3117 3120 3123 3125 3131 3133 3136 3139 3142 3143 3143 3146 3147 3147 3149 3149 3151 3151 3152 3153 3153 3154 3153 3154 3155 3155 3155 3155 3155 3155 3155
3100 3097 3092 3091 3091 3087 3083 3079 3082 3085 3087 3087 3088 3091 3095 3099 3106 3109 3111 3115 3119 3121 3126 3128 3133 3135 3138 3138 3140 3140 3143 3145 3147 3147 3146 3148 3149 3151 3151 3151 3151 3152 3152 3152 3153 3153 3152 3152 3152
3097 3093 3089 3085 3086 3082 3077 3070 3075 3077 3080 3081 3083 3085 3086 3093 3098 3100 3104 3110 3115 3119 3122 3127 3129 3130 3129 3134 3135 3137 3139 3140 3141 3143 3144 3145 3147 3148 3149 3149 3149 3148 3149 3149 3150 3150 3149 3148 3148
3094 3090 3084 3080 3077 3076 3073 3064 3067 3070 3071 3074 3077 3079 3082 3086 3090 3093 3098 3105 3111 3114 3118 3121 3125 3126 3126 3130 3132 3132 3133 3134 3136 3138 3138 3142 3144 3145 3145 3146 3146 3146 3146 3146 3146 3146 3146 3144 3143
3090 3085 3080 3075 3073 3069 3070 3060 3059 3062 3063 3066 3069 3073 3076 3081 3084 3089 3093 3096 3105 3114 3117 3118 3117 3119 3122 3126 3127 3129 3130 3131 3131 3133 3134 3138 3141 3142 3141 3143 3143 3143 3142 3142 3142 3142 3141 3139 3138
3088 3081 3075 3070 3067 3065 3063 3064 3053 3058 3058 3059 3063 3068 3072 3075 3080 3086 3089 3093 3102 3101 3093 3113 3113 3116 3119 3121 3124 3125 3127 3126 3125 3128 3130 3131 3136 3138 3138 3138 3138 3139 3139 3138 3137 3136 3135 3134 3132
3086 3077 3070 3064 3065 3065 3061 3061 3055 3054 3054 3054 3058 3063 3069 3071 3077 3082 3088 3093 3099 3101 3106 3106 3110 3111 3113 3115 3119 3121 3120 3119 3120 3124 3125 3128 3131 3134 3134 3134 3134 3134 3133 3133 3132 3130 3128 3126 3124
3086 3078 3069 3066 3066 3066 3059 3059 3056 3055 3054 3054 3056 3060 3065 3070 3074 3080 3085 3092 3096 3099 3101 3103 3107 3106 3108 3110 3107 3112 3107 3115 3117 3119 3121 3124 3127 3129 3130 3130 3129 3128 3127 3126 3125 3122 3120 3118 3116
3087 3082 3081 3081 3074 3068 3060 3057 3058 3057 3054 3053 3055 3058 3063 3067 3073 3078 3082 3087 3090 3093 3094 3098 3100 3102 3102 3098 3096 3104 3107 3111 3114 3115 3117 3119 3122 3123 3124 3124 3124 3122 3121 3119 3118 3115 3113 3110 3108
3090 3086 3083 3079 3076 3074 3067 3064 3062 3060 3057 3056 3056 3059 3061 3068 3072 3076 3080 3083 3087 3090 3092 3095 3099 3099 3101 3101 3098 3100 3106 3109 3111 3111 3113 3115 3117 3118 3118 3118 3117 3114 3113 3112 3110 3108 3105 3102 3100
3094 3090 3084 3082 3080 3081 3071 3068 3068 3063 3058 3056 3059 3060 3062 3067 3072 3075 3079 3083 3087 3090 3091 3092 3095 3096 3098 3098 3100 3101 3104 3106 3106 3108 3109 3111 3112 3111 3111 3111 3108 3107 3106 3105 3102 3099 3096 3093 3089
3095 3092 3088 3085 3085 3083 3080 3075 3072 3068 3064 3063 3059 3060 3065 3069 3073 3076 3078 3081 3083 3085 3088 3089 3090 3092 3094 3096 3096 3098 3100 3101 3103 3104 3106 3106 3105 3104 3103 3102 3101 3101 3098 3095 3093 3089 3086 3082 3079
3098 3094 3092 3090 3087 3083 3083 3081 3077 3073 3069 3066 3067 3067 3065 3067 3073 3076 3077 3079 3082 3084 3087 3089 3091 3092 3092 3093 3093 3096 3098 3099 3100 3100 3100 3100 3099 3098 3097 3096 3094 3091 3088 3085 3082 3078 3074 3071 3067
Wind_Speed
17 15 14 14 9 10 14 9 14 6 7 12 13 14 15 14 14 7 3 3 6 5 6 8 9 9 7 7 6 6 6 7 6 6 5 5 4 3 1 1 2 3 4 5 7 7 7 8 9
19 18 16 15 13 16 17 12 6 9 10 12 13 14 14 16 19 14 11 8 7 6 6 7 8 7 7 6 5 6 6 6 7 6 5 5 3 3 2 1 2 5 5 5 6 6 6 7 8
21 20 19 17 21 28 20 7 4 5 10 17 16 16 15 16 18 21 20 20 12 7 7 8 9 8 7 7 6 6 6 6 6 6 5 4 3 1 1 2 4 3 3 3 3 4 5 5 5
24 22 22 24 26 20 19 15 10 3 4 8 10 14 15 15 13 14 11 11 11 8 8 8 9 8 7 7 6 6 6 6 5 5 4 3 3 3 3 3 1 1 1 2 3 6 8 7 5
26 26 26 26 31 29 21 17 18 13 11 19 13 12 15 11 8 10 8 8 9 7 7 8 8 8 7 6 6 6 6 6 5 4 4 4 4 4 3 1 3 5 6 6 7 8 10 8 5
27 28 26 32 33 27 21 19 17 17 17 21 17 15 15 15 10 9 9 8 8 8 8 9 9 8 8 7 6 6 6 6 5 5 6 8 6 2 3 5 6 7 8 8 8 8 7 6 3
31 30 34 35 32 28 21 19 15 15 11 22 26 21 15 18 13 12 10 10 10 9 9 9 8 8 8 7 6 6 6 5 4 7 8 6 4 7 8 8 8 8 8 7 6 5 5 4 3
29 31 35 35 33 32 21 18 10 10 15 19 23 23 25 19 14 14 13 12 12 10 10 9 8 8 7 7 7 6 6 5 4 5 5 7 8 7 6 6 6 6 6 4 4 2 1 1 3
28 33 39 38 33 30 20 22 19 17 12 16 10 26 26 21 18 16 15 15 14 12 11 10 9 8 8 7 7 7 6 6 5 4 6 6 5 5 5 4 4 4 3 3 2 1 1 2 3
28 35 37 37 31 29 29 27 24 18 14 14 12 28 25 22 19 22 17 14 13 11 11 11 10 9 8 8 7 7 6 5 3 5 4 3 3 3 3 3 3 3 2 2 2 2 3 4 3
26 35 33 33 28 25 28 28 24 19 17 14 9 16 23 31 25 24 20 15 12 12 12 11 12 11 9 7 7 7 6 4 4 3 1 1 2 2 2 2 2 2 3 3 3 4 3 4 3
23 27 28 30 28 28 31 29 28 20 16 11 11 11 21 20 27 29 26 19 17 13 12 12 12 11 10 8 8 9 6 5 5 2 2 3 4 3 2 2 2 2 3 4 4 4 3 3 2
20 22 22 23 24 25 26 30 30 28 17 14 18 14 21 27 26 28 26 21 20 19 15 13 12 12 11 10 10 10 7 5 5 3 2 4 5 4 3 3 3 4 4 5 5 4 4 3 3
17 21 22 23 25 27 28 27 29 24 13 15 16 16 17 23 31 27 26 25 23 21 17 14 13 13 13 12 12 11 7 7 5 1 3 4 5 6 6 4 4 4 4 5 6 5 5 5 5
14 21 18 12 12 18 22 28 29 30 27 22 20 20 18 24 27 22 18 25 26 22 20 16 14 16 13 11 8 10 10 8 4 2 4 4 7 9 8 6 5 5 5 5 6 6 7 8 8
17 11 20 13 13 11 13 26 17 12 18 23 25 27 24 21 27 22 21 26 34 28 22 16 17 17 13 8 6 6 10 6 6 7 7 8 7 8 9 9 6 5 6 5 7 8 9 10 11
18 22 25 25 16 19 19 25 20 14 15 15 26 29 30 26 25 28 26 31 34 30 22 20 17 17 13 9 10 9 9 9 8 8 10 10 7 6 7 11 7 6 8 7 9 9 10 11 12
22 24 26 28 26 25 29 33 25 21 21 22 18 25 33 31 29 29 32 33 35 29 26 20 16 11 8 11 13 13 10 14 13 11 12 9 7 6 4 7 8 8 10 9 11 11 12 12 13
25 25 28 26 24 24 28 35 31 28 23 25 26 21 31 34 29 29 34 33 33 30 30 24 15 11 21 27 21 16 15 13 10 6 13 10 9 7 5 7 9 10 12 12 12 13 14 15 16
17 21 26 29 24 22 26 31 25 24 31 24 28 25 27 32 32 36 37 35 34 32 30 28 24 21 16 23 21 19 19 16 16 13 16 13 11 9 7 8 11 12 13 14 15 15 17 18 19
20 24 23 26 26 25 26 36 32 29 27 31 25 27 25 25 31 38 39 38 35 34 31 32 24 32 20 23 24 22 22 23 26 14 20 14 14 11 9 10 12 14 15 16 17 19 19 21 22
28 21 24 28 26 18 16 20 34 26 21 28 28 26 24 24 33 35 36 44 34 28 32 35 32 33 23 23 25 19 18 17 14 12 12 17 17 14 13 13 14 14 15 18 20 20 20 22 25
27 25 28 33 26 23 22 12 23 18 17 15 27 27 25 22 23 33 34 27 28 33 40 32 37 37 33 23 25 20 17 15 12 14 16 18 17 17 16 18 14 15 16 20 21 22 23 26 28
27 26 36 10 6 3 12 10 5 9 8 13 18 27 25 19 21 24 24 27 31 25 26 32 33 36 33 30 32 23 25 16 13 15 17 20 17 19 18 19 17 17 19 21 24 26 28 31 34
27 31 7 5 5 3 10 8 6 11 12 13 19 23 26 22 25 25 27 26 23 27 26 29 30 34 34 36 38 23 19 23 11 18 21 21 15 17 21 21 18 20 21 23 28 28 32 34 36
20 23 7 3 5 5 14 7 7 7 10 12 9 14 19 24 25 27 22 21 24 26 25 24 29 26 26 23 18 13 23 24 20 19 20 17 15 20 20 22 23 23 25 26 32 31 34 35 36
21 20 15 3 5 5 14 17 31 18 10 4 12 15 16 25 22 22 19 19 19 20 21 22 21 20 24 18 16 16 20 18 16 18 16 12 19 18 21 21 26 26 26 30 33 34 35 37 39
20 18 11 7 5 5 10 12 14 16 21 3 7 8 19 24 22 22 18 16 16 18 17 18 19 18 18 18 17 16 15 13 9 11 13 15 21 24 21 23 28 29 31 34 35 36 38 41 43
20 18 11 9 5 3 4 6 16 21 16 12 7 4 14 13 10 12 15 19 20 21 22 21 24 19 15 15 13 10 7 6 10 12 14 20 23 26 24 29 28 32 34 35 37 40 42 44 44
14 17 14 8 8 2 1 6 14 19 16 14 6 8 10 8 6 5 8 9 11 13 14 14 15 14 13 12 9 7 8 9 14 14 20 21 26 27 28 29 32 34 36 39 41 42 42 42 39
Wind_Direction
237 238 245 250 244 234 239 231 215 175 192 215 255 241 249 247 231 216 268 235 249 228 203 189 193 199 202 208 212 223 224 222 216 216 216 222 232 244 257 322 4 34 50 48 62 61 52 52 54
240 239 242 248 242 245 254 228 253 282 249 211 250 265 258 238 230 240 254 272 260 220 205 195 198 205 207 213 221 224 227 226 223 219 216 222 232 254 286 341 66 76 72 61 55 48 41 40 40
236 239 241 242 250 244 249 226 97 85 199 206 248 252 258 253 241 247 257 253 260 224 205 199 201 209 211 217 223 231 226 219 221 222 222 219 226 227 131 104 96 84 77 53 25 4 359 5 10
234 232 236 236 240 249 244 249 275 173 166 229 239 242 258 264 248 261 244 230 222 220 213 204 206 213 212 219 227 226 223 217 213 216 216 201 173 172 150 131 122 58 334 325 324 321 321 332 348
229 233 232 238 245 252 252 263 279 275 270 254 242 237 266 252 265 239 214 206 214 217 213 208 213 214 218 220 221 219 214 210 198 193 214 202 180 152 143 237 288 291 292 293 299 304 307 316 344
219 226 231 239 245 252 258 270 271 286 277 242 223 232 244 259 261 230 214 210 211 202 209 208 211 213 216 218 216 210 203 199 201 187 159 141 138 180 264 281 286 287 287 286 289 293 298 312 2
226 228 234 242 247 251 258 270 272 293 272 239 240 225 251 260 254 237 215 206 205 204 203 206 205 208 211 207 207 207 205 198 182 162 157 168 248 271 273 277 280 282 283 283 286 290 298 314 31
232 235 242 244 245 252 258 268 265 313 300 279 264 257 226 233 238 237 220 208 202 200 202 201 202 201 199 202 200 201 196 191 194 208 223 252 271 279 279 280 283 285 288 292 289 281 286 359 68
230 233 242 243 245 246 247 258 278 296 300 294 250 235 224 227 233 222 231 215 207 199 194 193 191 193 197 199 192 186 191 196 209 225 239 254 275 288 295 295 290 281 275 258 239 215 135 111 122
229 238 246 249 251 253 248 262 272 295 289 281 284 218 217 226 240 228 238 226 209 200 196 186 183 187 189 196 189 190 192 200 209 211 233 258 276 291 299 297 288 272 242 234 204 174 150 138 146
241 246 249 254 255 258 258 253 262 282 277 274 273 218 231 224 236 240 230 221 212 201 197 189 185 186 178 189 191 188 190 187 180 202 221 284 293 282 304 305 284 255 234 206 197 192 179 155 158
244 248 258 264 262 261 255 252 258 263 264 261 271 246 253 219 212 236 227 211 209 205 198 194 188 187 178 180 187 191 193 167 165 167 256 268 269 290 311 293 273 260 241 223 214 203 204 195 181
258 264 258 259 258 259 260 246 253 260 256 251 255 245 238 225 222 215 235 224 213 210 202 199 193 194 184 190 186 195 190 187 202 203 270 291 298 310 304 284 264 254 249 251 245 234 227 231 252
278 272 274 268 264 263 265 264 245 252 238 238 246 248 239 230 234 246 207 230 220 215 211 204 205 200 197 180 186 192 197 222 224 340 348 322 341 323 297 288 272 262 258 257 258 261 266 261 254
313 301 296 305 319 287 276 262 253 253 258 249 236 235 235 232 222 249 236 220 231 229 217 211 215 217 209 187 191 198 211 227 239 267 310 319 313 302 284 270 278 272 248 246 256 259 260 263 267
323 308 325 300 326 310 272 270 272 265 266 250 238 237 231 233 241 252 244 228 233 226 222 215 219 224 227 211 209 210 223 246 262 295 291 299 309 289 272 265 263 267 267 266 268 270 273 274 273
322 311 306 304 296 298 286 289 281 239 233 237 238 235 238 232 236 236 236 232 231 229 230 226 227 225 227 228 244 259 226 253 267 280 269 284 299 301 270 272 274 282 276 270 269 271 272 276 284
316 310 302 299 309 291 277 277 279 270 251 231 220 236 233 230 227 234 232 225 228 228 230 234 231 227 248 270 265 268 252 248 255 242 261 264 286 301 278 264 268 269 271 269 273 277 280 283 281
304 305 301 300 306 298 284 278 279 269 245 241 230 226 227 231 225 232 233 228 230 230 227 223 204 213 271 263 256 235 243 245 225 245 256 248 264 281 297 282 267 266 269 274 278 280 282 281 279
309 303 304 304 304 294 282 280 277 270 245 239 233 238 221 223 220 226 228 228 230 233 233 222 223 263 267 256 237 236 245 249 239 240 242 246 250 265 286 290 279 273 273 276 278 283 282 281 282
318 313 315 309 309 288 290 284 280 277 258 235 231 239 226 214 222 223 231 228 232 228 230 231 246 248 267 248 234 234 242 246 239 251 233 241 248 260 277 286 288 280 277 278 280 279 281 285 288
326 327 315 310 304 292 293 288 291 287 274 233 231 227 220 219 230 227 236 227 220 225 229 233 246 242 249 250 236 242 255 250 252 231 222 230 248 259 265 279 293 288 287 282 280 283 285 286 287
325 314 302 310 286 282 289 264 285 287 295 250 225 221 225 231 233 226 235 238 233 239 213 235 239 245 241 248 236 245 248 234 242 236 235 232 242 260 267 280 278 292 297 288 285 284 284 285 287
336 318 317 333 323 273 352 259 339 23 331 261 225 221 220 216 226 222 225 232 246 233 218 234 240 245 230 237 235 239 222 277 247 239 246 240 237 256 263 276 272 288 291 284 283 286 289 291 293
337 341 323 12 31 299 287 325 280 315 304 312 221 220 219 206 215 223 236 233 225 229 229 236 229 262 248 239 228 241 255 283 250 252 250 241 249 262 266 275 267 278 285 284 284 288 291 292 292
343 353 26 320 335 300 355 328 354 19 349 312 257 236 223 210 210 222 236 233 227 224 234 232 234 248 251 241 241 274 275 280 254 243 248 242 259 262 268 266 271 280 276 286 283 285 287 288 289
352 351 353 313 293 306 18 28 30 25 359 325 259 237 228 208 206 220 217 220 215 218 227 237 247 241 244 266 280 273 274 260 244 251 247 257 262 264 256 267 264 275 277 281 281 284 286 288 289
9 6 356 5 352 350 342 34 10 20 22 127 336 193 210 212 211 215 206 211 217 235 239 248 248 250 266 271 268 268 255 251 252 244 270 277 273 257 272 262 277 277 275 279 282 284 286 288 288
5 6 360 354 35 340 316 14 16 5 10 20 83 161 207 187 198 201 208 227 232 233 231 244 266 274 273 277 277 279 278 265 272 276 278 269 271 276 264 282 274 275 280 283 285 287 287 286 286
31 18 5 29 347 17 341 351 1 9 29 43 84 114 115 134 217 182 197 212 216 226 234 240 254 263 268 272 275 287 282 271 287 277 274 268 278 280 275 272 277 280 282 285 287 286 286 286 286